User: anonymous   Login
Location: Voyageurs National Park
(48.5020°N, 92.9292°W)
Time: 12:12:58
(UTC-05:00)
Language:

Terra - Orbit

View from above orbital plane
View from above orbital plane
View from above satellite
View from above satellite

Ground track
Ground track

The orbit data is extracted from the following two-line orbital elements,

1 25994U 99068A   15245.40282750  .00000169  00000-0  47501-4 0  9993
2 25994  98.2080 318.8708 0001103  92.4973 267.6351 14.57130115835466
Epoch (UTC): 02 September 2015 09:40:04
Eccentricity: 0.0001103
inclination: 98.2080°
perigee height: 701 km
apogee height: 703 km
right ascension of ascending node: 318.8708°
argument of perigee: 92.4973°
revolutions per day: 14.57130115
mean anomaly at epoch: 267.6351°
orbit number at epoch: 83546

The dashed part of the orbit path shows where the satellite is in the earth's shadow,  

DLR